SCP
0 0 0 0 0 0 0 -0 0 0 0 0 0 0 0 0 0 0 0 0 0 0 0 0 0 0 0 0 0 0 0 0 0 0 0 0 0 0 0 0 0 0 0 0 0 0 0 0 0 0 -0 -0 0 0
0 0 0 0 0 0 0 0 0 0 0 0 0 0 0 0 0 0 0 0 0 0 0 0 0 0 0 0 0 0 0 0 0 0 0 0 0 0 0 0 0 0 0 0 0 0 0 0 0 -0 -0 -0 -0 -0
0 0 0 0 0 0 0 0 0 0 0 0 0 0 0 0 0 0 0 0 0 0 0 0 0 0 0 0 0 0 0 0 0 0 0 0 0 0 0 0 0 0 0 0 0 0 0 0 -0 -0 -0 -0 -0 -0
0 0 0 0 0 0 0 0 0 0 0 0 0 0 0 0 0 0 0 0 0 0 0 0 0 0 0 0 0 0 0 0 0 0 0 0 0 0 0 0 0 0 0 0 0 -0 -0 -0 -0 0 -0 -0 0 -0
0 0 0 0 0 0 0 0 0 0 0 0 0 0 0 0 0 0 0 0 0 0 0 0 0 0 0 0 0 0 0 0 0 0 0 0 0 0 0 0 0 0 0 0 0 0 0 0 0 0 0 -0 0 0
0 0 0 0 0 0 0 0 0 0 0 0 0 0 0 0 0 0 0 0 0 0 0 0 0 0 0 0 0 0 0 0 0 0 0 0 0 0 0 0 0 0 0 0 0 0 0 0 -0 0 -0 0 0 0
0 0 0 0 0 0 0 0 0 0 0 0 0 0 0 0 0 0 0 0 0 0 0 0 0 0 0 0 0 0 0 0 0 0 0 0 0 0 0 0 0 0 0 0 0 -0 0 0 0 -0 -0 0 0 0
0 0 0 0 0 0 0 0 0 0 0 0 0 0 0 0 0 0 0 0 0 0 0 0 0 0 0 0 0 0 0 0 0 0 0 0 0 0 0 0 0 0 0 0 0 0 0 0 -0 -0 0 0 0 -0
0 0 0 0 0 0 0 0 0 0 0 0 0 0 0 0 0 0 0 0 0 0 0 0 0 0 0 0 0 0 0 0 0 0 0 0 0 0 -0 0 0 -0 -0 -0 -0 -0 0 -0 -0 -0 0 0 0 -0
0 0 0 0 0 0 0 0 0 0 0 0 0 0 0 0 0 0 0 0 0 0 0 0 0 0 0 0 0 0 0 0 0 0 0 0 0 0 -0 0 0 -0 0 -0 -0 -0 -0 0 -0 -0 -0 0 0 0
0 0 0 0 0 0 0 0 0 0 0 0 0 0 0 0 0 0 0 0 0 0 0 0 0 0 0 0 0 0 0 0 0 0 0 0 0 0 0 0 0 0 -0 -0 0 -0 -0 -0 -0 -0 0 0 0 0
0 0 0 0 0 0 0 0 0 0 0 0 0 0 0 0 0 0 0 0 0 0 0 0 0 0 0 0 0 0 0 0 0 0 0 0 -0 0 0 0 0 0 -0 -0 0 0 0 0 0 0 0 0 0 0
0 0 0 0 0 0 -0 0 0 0 0 0 0 0 0 0 0 0 0 0 0 0 0 0 0 0 0 0 0 0 0 0 0 0 0 0 0 0 0 0 0 0 0 0 0 0 0 0 0 0 0 0 0 0
0 0 0 0 0 0 0 0 0 0 0 0 0 0 0 0 0 0 0 0 0 0 0 0 0 0 0 0 0 0 0 0 0 0 0 0 0 0 0 0 0 0 0 0 0 0 0 0 0 0 0 0 0 0
0 0 0 0 0 0 0 0 0 0 0 0 0 0 0 0 0 0 0 0 0 0 0 0 0 0 0 0 0 0 0 0 0 0 0 0 0 0 0 0 0 0 0 0 0 0 0 0 0 0 0 0 0 0
0 0 0 0 0 0 0 0 0 0 0 0 0 0 0 0 0 0 0 0 0 0 0 0 0 0 0 0 0 0 0 0 0 0 0 0 0 0 0 0 0 0 0 0 0 0 0 0 0 0 0 0 0 0
0 0 0 0 0 0 0 0 0 0 0 0 0 0 0 0 0 0 0 0 0 0 0 0 0 0 0 0 0 0 0 0 0 0 0 0 0 0 0 0 0 0 0 0 0 0 0 0 0 0 0 0 0 0
0 0 0 0 0 0 0 0 0 0 0 0 0 0 0 0 0 0 0 0 0 0 0 0 0 0 0 0 0 0 0 0 0 0 0 0 0 0 0 0 0 0 0 0 0 0 0 0 0 0 0 0 0 0
0 0 0 0 0 0 0 0 0 0 0 0 0 0 0 0 0 0 0 0 0 0 0 0 0 0 0 0 0 0 0 0 0 0 0 0 0 0 0 0 0 0 0 0 0 0 0 0 0 0 0 0 0 0
0 0 0 0 0 0 0 0 0 0 0 0 0 0 0 0 0 0 0 0 0 0 0 0 0 0 0 0 0 0 0 0 0 0 0 0 0 0 0 0 0 0 0 0 0 0 0 0 0 0 0 0 0 0
0 0 0 0 0 0 0 0 0 0 0 0 0 0 0 0 0 0 0 0 0 0 0 0 0 0 0 0 0 0 0 0 0 0 0 0 0 0 0 0 0 0 0 0 0 0 0 0 0 0 0 0 0 0
0 0 0 0 0 0 0 0 0 0 0 0 0 0 0 0 0 0 0 0 0 0 0 0 0 0 0 0 0 0 0 0 0 0 0 0 0 0 0 0 0 0 0 0 0 0 0 0 0 0 0 0 0 0
0 0 0 0 0 0 0 0 0 0 0 0 0 0 0 0 0 0 0 0 0 0 0 0 0 0 0 0 0 0 0 0 0 0 0 0 0 0 0 0 0 0 0 0 0 0 0 0 0 0 0 0 0 0
0 0 0 0 0 0 0 0 0 0 0 0 0 0 0 0 0 0 0 0 0 0 0 0 0 0 0 0 0 0 0 0 0 0 0 0 0 0 0 0 0 0 0 0 0 0 0 0 0 0 0 0 0 0
0 0 0 0 0 0 0 0 0 0 0 0 0 0 0 0 0 0 0 0 0 0 0 0 0 0 0 0 0 0 0 0 0 0 0 0 0 0 0 0 0 0 0 0 0 0 0 0 0 0 0 0 0 0
0 0 0 0 0 0 0 0 0 0 0 0 0 0 0 0 0 0 0 0 0 0 0 0 0 0 0 0 0 0 0 0 0 0 0 0 0 0 0 0 0 0 0 0 0 0 0 0 0 0 0 0 0 0
0 0 0 0 0 0 0 0 0 0 0 0 0 0 0 0 0 0 0 0 0 0 0 0 0 0 0 0 0 0 0 0 0 0 0 0 0 0 0 0 0 0 0 0 0 0 0 0 0 0 0 0 0 0
0 0 0 0 0 0 0 0 0 0 0 0 0 0 0 0 0 0 0 0 0 0 0 0 0 0 0 0 0 0 0 0 0 0 0 0 0 0 0 0 0 0 0 0 0 0 0 0 0 0 0 0 0 0
0 0 0 0 0 0 0 0 0 0 0 0 0 0 0 0 0 0 0 0 0 0 0 0 0 0 0 0 0 0 0 0 0 0 0 0 0 0 0 0 0 0 0 0 0 0 0 0 0 0 0 0 0 0
0 0 0 0 0 0 0 0 0 0 0 0 0 0 0 0 0 0 0 0 0 0 0 0 0 0 0 0 0 0 0 0 0 0 0 0 0 0 0 0 0 0 0 0 0 0 0 0 0 0 0 0 0 0
0 0 0 0 0 0 0 0 0 0 0 0 0 0 0 0 0 0 0 0 0 0 0 0 0 0 0 0 0 0 0 0 0 0 0 0 0 0 0 0 0 0 0 0 0 0 0 0 0 0 0 0 0 0
0 0 0 0 0 0 0 0 0 0 0 0 0 0 0 0 0 0 0 0 0 0 0 0 0 0 0 0 0 0 0 0 0 0 0 0 0 0 0 0 0 0 0 0 0 0 0 0 0 0 0 0 0 0
0 0 0 0 0 0 0 0 0 0 0 0 0 0 0 0 0 0 0 0 0 0 0 0 0 0 0 0 0 0 0 0 0 0 0 0 0 0 0 0 0 0 0 0 0 0 0 0 0 0 0 0 0 0
Wind_Speed_500mb
74 67 75 61 73 71 50 69 53 69 65 54 46 53 64 60 57 50 40 30 27 9 11 13 11 6 7 6 6 3 4 2 6 6 5 6 5 7 1 5 5 5 7 3 5 8 6 4 0 13 13 18 14 13
78 72 73 67 68 79 57 58 64 56 65 61 61 60 67 66 63 62 47 39 32 13 6 10 13 12 8 8 4 2 4 4 5 7 1 6 3 3 4 5 3 3 9 7 9 9 3 1 18 32 27 27 19 15
84 75 68 74 64 81 80 47 62 69 66 68 59 57 66 73 71 69 55 45 34 14 6 9 11 12 10 8 6 5 4 4 4 4 10 4 6 6 4 8 2 6 8 5 5 9 13 17 22 27 27 24 24 22
83 79 69 78 63 70 81 71 52 72 60 64 56 56 71 81 78 71 57 47 41 13 7 6 14 12 12 9 4 5 12 10 11 5 3 4 6 12 5 4 5 8 19 11 7 5 7 25 34 33 32 30 30 28
85 84 75 73 69 63 81 82 55 61 67 60 55 58 67 82 78 67 50 48 53 18 6 9 10 13 15 13 13 13 14 9 4 1 2 3 3 4 2 1 9 24 14 11 11 45 16 41 53 46 44 42 38 38
68 84 79 67 72 60 70 83 76 53 62 56 53 66 78 89 82 66 23 50 58 34 3 4 8 7 20 17 16 10 8 6 4 4 4 3 4 5 5 7 21 46 32 19 3 52 18 43 51 50 48 47 44 40
64 81 81 66 74 61 63 69 84 52 57 53 52 69 75 86 85 53 18 21 67 45 12 9 4 5 21 17 11 9 6 4 5 3 6 5 7 9 6 10 17 35 52 38 21 67 33 58 59 55 49 47 44 41
68 73 76 64 71 63 55 59 66 51 46 39 73 82 94 96 83 44 23 35 68 28 11 7 2 6 21 10 8 11 8 7 5 5 5 3 5 10 12 36 36 27 57 49 51 61 44 56 53 61 56 54 54 52
71 61 72 68 71 59 52 54 65 55 57 76 110 107 91 62 36 35 33 57 59 13 13 10 10 7 22 9 9 10 8 3 4 4 4 3 4 13 27 40 48 57 66 63 70 59 40 58 61 67 64 62 58 58
66 62 79 69 64 70 43 51 48 59 87 89 108 31 16 29 54 57 21 16 16 9 9 7 16 6 18 10 7 10 5 4 3 5 2 4 9 64 64 54 31 59 73 64 80 60 53 66 72 76 75 64 59 57
66 70 73 70 61 55 57 69 63 72 92 85 25 12 66 71 22 10 12 10 11 3 16 15 17 12 19 8 8 13 5 2 2 6 6 5 8 12 8 27 69 41 76 73 84 75 79 71 81 78 74 68 62 59
72 72 76 72 56 58 70 45 131 91 64 53 47 69 44 14 9 10 6 4 6 11 21 24 17 14 18 12 11 9 6 3 7 3 5 7 10 25 24 22 27 71 59 83 80 69 62 67 64 70 67 66 63 58
74 81 72 65 57 67 61 121 103 87 76 66 22 17 14 8 7 18 18 7 4 23 30 24 11 16 15 10 15 6 6 7 4 4 8 11 19 13 24 26 17 62 62 71 80 75 52 54 56 61 64 62 61 62
86 74 68 65 67 67 66 128 96 95 59 14 19 15 10 8 12 10 11 12 16 19 60 56 24 11 11 7 7 8 3 2 5 3 14 7 11 19 20 20 24 44 75 62 82 78 64 55 53 53 58 61 64 68
81 74 70 66 67 54 118 115 95 77 15 11 16 12 12 9 7 14 28 29 20 58 71 30 18 10 5 8 4 8 5 8 12 11 7 7 12 22 17 15 21 27 68 61 69 81 73 61 55 52 54 62 64 67
80 67 66 53 45 85 141 111 75 47 11 13 10 12 12 10 8 15 29 29 52 76 41 9 8 7 5 10 7 15 14 13 8 8 14 20 18 19 13 8 11 20 49 60 54 73 72 68 61 53 53 56 64 67
74 52 58 50 70 128 121 84 36 10 12 13 3 11 22 17 17 22 34 40 78 56 6 10 9 6 10 6 5 10 11 7 9 17 20 23 20 14 7 5 4 15 36 52 46 52 70 64 63 61 62 61 61 64
63 61 58 58 126 112 70 24 10 9 12 7 7 17 24 17 28 31 31 66 59 24 19 7 21 7 10 11 7 7 19 29 27 26 25 22 19 11 6 3 4 11 23 34 39 40 59 71 70 68 59 55 57 61
58 55 59 98 113 72 13 9 4 12 9 9 23 26 27 18 18 30 42 77 31 24 18 13 6 7 7 12 8 7 17 25 31 26 14 10 9 8 8 7 7 11 17 28 33 37 45 58 65 62 58 56 57 58
45 48 79 68 84 23 11 10 12 14 9 10 17 26 18 13 27 38 55 48 33 13 0 5 8 8 11 6 3 8 15 22 22 16 15 17 8 10 11 10 8 10 15 20 29 34 39 47 55 58 59 57 56 54
53 45 58 85 30 15 13 10 12 14 20 14 36 14 17 26 19 25 26 31 14 9 7 12 10 17 10 4 3 11 15 18 19 15 14 16 16 16 11 10 10 13 16 18 21 26 33 37 40 45 50 52 51 49
39 63 73 52 11 12 16 13 20 23 11 23 18 13 16 10 13 19 30 10 10 7 11 11 14 16 15 14 15 13 16 17 20 21 21 19 18 15 13 13 13 13 12 12 16 19 22 26 30 37 43 46 48 48
55 57 34 10 13 10 12 9 9 8 10 12 13 8 5 1 12 35 11 10 10 16 23 25 25 21 21 26 26 28 30 28 29 34 31 28 27 26 25 24 25 25 23 19 22 25 28 30 33 36 38 42 45 47
42 17 11 9 10 8 14 6 9 12 13 4 6 7 2 6 24 4 5 6 9 8 13 18 20 19 22 23 24 28 29 29 28 31 32 32 31 32 32 31 31 31 31 27 26 28 29 31 33 37 38 40 43 45
10 6 9 10 8 11 9 5 5 7 6 2 9 3 6 13 5 6 7 4 2 4 6 8 7 9 11 13 17 21 25 27 28 27 27 28 29 28 28 28 27 28 29 30 29 30 30 31 32 34 36 39 42 43
9 5 6 7 7 9 11 11 11 12 9 6 3 10 10 5 2 7 4 9 7 8 11 9 6 4 6 8 9 10 13 16 15 13 12 16 19 21 22 22 20 23 25 26 25 25 25 26 28 30 32 34 36 39
9 3 7 10 13 19 13 14 11 8 8 11 9 8 6 7 10 3 4 11 7 8 9 7 7 6 4 2 2 5 7 9 11 10 10 12 15 17 20 22 23 22 24 25 25 26 26 27 28 27 27 29 32 33
8 10 13 11 11 9 11 7 7 5 4 7 17 5 9 3 3 5 3 7 6 4 4 3 6 6 7 6 6 6 6 8 6 5 4 6 12 15 22 27 28 27 26 25 25 25 25 26 26 25 25 25 24 27
7 15 12 10 9 17 13 7 5 6 4 7 7 6 7 9 10 9 8 7 5 4 2 1 5 3 5 4 6 7 9 11 9 7 9 8 10 14 24 25 24 24 24 22 20 20 20 21 21 21 19 18 18 21
8 7 12 9 9 9 9 9 11 18 20 23 22 21 19 19 21 18 18 14 8 6 7 6 5 5 4 5 7 5 9 17 21 19 19 18 20 22 23 23 22 22 21 20 18 15 13 13 12 12 12 14 16 18
11 8 14 15 9 9 34 42 39 32 19 25 26 26 25 18 23 29 24 19 17 15 12 11 9 8 8 10 11 8 9 13 16 17 19 21 23 23 23 22 20 19 17 15 12 7 2 1 2 3 6 9 13 17
8 9 14 10 9 28 17 7 9 11 10 11 13 14 12 10 9 9 19 17 16 17 17 13 10 11 12 15 16 17 16 16 16 16 15 17 19 20 18 17 16 14 11 7 3 2 3 4 5 8 11 14 17 21
14 21 19 18 11 9 13 11 8 11 15 10 9 8 7 7 8 9 14 21 22 22 18 12 12 12 12 14 15 16 16 17 18 19 19 18 18 16 14 12 10 7 7 7 7 7 7 8 11 14 17 20 24 28
Wind_Direction_500mb
234 236 226 228 223 218 218 228 223 213 208 209 212 216 211 204 205 204 207 210 207 211 184 195 192 187 176 183 143 189 46 321 52 64 120 198 146 221 39 242 201 154 116 186 92 70 339 235 289 129 160 134 117 99
231 231 228 227 225 217 218 211 226 212 198 219 212 214 214 206 203 204 206 207 209 227 160 195 204 209 228 206 184 90 138 145 152 92 336 104 140 91 146 278 245 311 182 191 176 207 241 97 115 128 137 142 150 137
228 227 230 222 221 217 216 211 209 217 206 213 218 210 215 210 207 209 205 199 198 223 238 199 198 197 209 204 212 178 177 151 172 183 156 164 119 132 165 245 210 249 178 154 74 232 225 185 154 154 159 159 158 153
224 219 221 217 218 218 217 217 205 216 213 207 215 208 216 210 205 204 201 198 186 181 193 178 199 194 204 196 181 148 136 135 130 98 112 135 129 194 204 215 224 204 149 171 262 275 228 220 200 181 173 168 163 160
222 218 218 219 214 218 215 219 212 207 220 211 215 213 226 212 205 201 202 200 189 194 162 144 159 186 175 173 149 136 121 126 134 199 71 226 154 169 238 277 241 191 178 174 215 189 177 194 186 183 181 176 173 169
209 212 212 218 211 214 217 219 216 210 214 216 214 226 215 207 203 183 187 209 201 187 192 117 159 162 169 170 155 149 148 166 175 218 231 221 215 186 215 236 246 203 199 199 236 175 169 166 179 182 181 178 175 174
208 209 207 209 207 211 213 215 215 210 199 211 221 208 217 206 191 176 185 194 190 176 161 114 82 111 161 166 162 172 177 200 209 227 237 240 208 204 237 237 240 205 197 195 181 165 152 170 179 183 184 180 179 178
214 206 199 203 203 210 209 213 209 210 208 211 213 199 199 191 177 176 160 160 174 144 184 118 344 132 165 158 157 182 195 205 230 203 223 226 236 230 250 238 228 204 187 190 181 182 194 179 180 182 185 187 186 187
213 198 197 200 203 205 204 201 192 193 194 195 177 176 164 166 164 157 152 165 165 146 177 155 150 197 163 140 136 155 190 255 279 206 180 180 252 229 226 231 214 200 187 184 183 188 180 189 186 187 190 194 196 193
216 204 195 200 202 210 203 193 186 196 182 182 163 147 132 147 140 128 107 150 185 186 215 134 130 157 158 146 135 132 157 212 229 254 238 172 258 255 248 241 236 212 199 188 176 185 184 189 193 195 199 201 201 200
212 202 193 200 196 205 207 185 169 179 179 151 153 89 135 130 121 114 126 166 169 244 201 163 161 140 178 129 171 194 169 196 77 249 143 280 275 247 286 244 228 220 208 203 206 207 203 204 198 199 201 203 204 203
202 196 193 194 192 199 199 209 170 171 165 163 147 131 132 143 133 125 151 144 178 214 175 150 154 134 145 155 120 149 138 60 233 103 67 268 252 264 275 272 219 209 210 207 209 214 212 213 209 206 205 204 205 206
192 194 184 180 189 192 199 169 170 172 153 126 108 143 167 157 139 185 184 201 208 174 165 153 129 140 133 163 90 109 123 198 138 56 237 236 260 259 280 295 248 204 207 208 209 211 214 216 215 212 210 208 209 208
184 177 174 181 189 183 175 170 174 158 149 115 143 155 185 175 224 188 172 170 172 163 154 145 118 140 132 101 125 109 263 90 38 294 237 248 268 305 295 261 224 207 202 208 208 210 211 212 214 214 215 216 212 212
165 169 175 180 182 183 176 174 165 159 144 136 140 167 190 168 106 128 128 122 125 151 146 117 96 129 101 103 61 116 56 250 213 233 236 280 327 326 319 257 232 219 204 206 208 210 212 214 213 213 214 214 217 219
166 168 181 180 183 171 172 168 164 168 112 136 141 110 140 129 110 137 141 137 151 156 153 136 122 111 126 129 122 214 145 222 246 225 286 324 330 323 323 274 258 221 207 210 212 211 212 216 217 217 217 217 218 220
165 166 171 164 169 168 160 159 146 148 113 113 148 175 134 92 137 174 167 159 160 160 158 132 119 160 113 77 246 197 210 229 299 331 332 328 325 327 306 290 245 201 200 207 216 218 216 219 221 224 224 223 225 225
166 165 170 160 160 158 157 159 140 112 81 96 189 142 102 113 158 165 155 162 160 192 170 166 128 145 180 179 238 234 261 307 321 312 294 316 327 338 352 285 230 210 208 212 226 228 221 220 222 226 230 232 232 230
153 156 161 150 160 151 119 112 99 94 90 98 114 106 92 134 152 156 162 164 156 160 148 147 130 185 216 215 224 342 339 347 329 333 340 330 322 343 344 326 288 252 232 229 234 236 233 231 233 235 238 239 239 238
145 151 165 153 158 147 99 82 110 104 114 111 113 97 110 136 144 150 154 163 148 128 280 220 215 194 152 126 7 359 354 354 355 14 49 35 10 353 350 339 319 278 261 254 246 241 237 235 235 237 238 241 245 247
145 149 158 163 137 99 98 109 78 88 114 93 122 110 113 124 129 147 155 140 153 208 239 234 188 170 170 172 17 14 4 1 4 358 345 350 6 7 349 326 316 304 298 288 277 266 258 254 248 246 248 249 251 250
144 164 151 151 93 78 74 66 108 109 94 125 124 130 127 157 134 143 157 182 215 236 224 230 217 209 224 243 270 301 325 332 337 329 327 325 320 317 315 319 320 310 304 293 281 273 265 258 252 250 250 249 249 249
149 150 155 80 95 72 113 94 85 96 121 166 149 96 53 144 130 144 181 213 228 227 229 237 243 246 248 251 265 284 296 297 295 297 301 299 300 300 300 299 298 299 296 286 269 262 259 254 251 249 248 249 249 247
122 129 127 103 83 105 133 79 103 108 117 81 77 84 143 145 154 175 226 184 203 230 246 255 261 262 258 257 262 265 270 279 286 287 288 291 290 290 291 292 291 292 290 288 282 276 271 265 257 252 249 246 244 244
107 57 106 70 110 105 97 59 25 69 101 127 98 134 218 170 144 193 214 126 257 264 304 308 297 274 258 251 259 268 274 280 286 289 287 290 293 294 292 292 293 290 286 285 282 278 275 271 265 259 252 248 244 241
92 45 69 131 144 135 172 125 171 155 128 122 151 139 155 123 145 220 100 13 9 4 345 341 330 317 273 279 286 283 291 300 306 309 305 308 312 315 315 312 304 292 290 289 286 281 277 274 268 263 258 254 249 244
122 133 103 91 116 125 92 86 117 104 126 151 176 144 130 183 213 86 82 26 3 337 335 340 350 343 324 324 328 331 336 337 331 311 308 319 329 332 328 323 316 307 300 297 293 289 282 273 267 263 258 251 248 245
100 137 129 132 93 54 116 87 111 133 136 118 126 123 166 13 101 67 95 354 6 6 9 12 14 23 22 40 40 44 25 357 342 320 298 299 317 311 323 324 317 314 310 304 298 292 284 276 269 261 255 250 243 239
86 112 113 56 71 56 45 43 85 72 62 134 106 105 104 77 55 85 79 65 58 43 11 32 30 38 29 37 31 20 12 12 14 339 318 313 313 312 318 319 316 312 312 310 304 291 282 276 268 256 249 241 230 223
78 81 95 66 57 52 20 59 95 101 89 96 101 105 90 92 75 81 72 62 55 51 45 52 57 45 18 24 37 13 358 1 5 0 349 338 333 329 330 331 330 328 325 320 311 300 290 280 274 267 251 232 216 203
89 96 76 64 79 76 114 107 92 80 78 68 81 107 120 126 83 61 54 45 39 34 31 34 38 34 31 37 36 39 33 6 357 351 345 343 339 338 339 338 336 336 334 326 318 303 304 275 194 182 190 189 182 176
67 67 125 113 126 154 134 91 87 85 78 70 65 79 88 87 78 65 30 35 32 32 32 35 37 37 40 39 33 31 25 12 5 359 352 345 344 343 342 340 340 340 338 346 357 41 70 93 114 130 147 154 155 157
83 76 85 101 116 174 161 134 91 88 64 72 70 75 85 85 95 46 27 23 26 27 31 46 47 46 50 41 33 28 22 15 10 6 360 352 348 350 353 353 351 5 32 50 69 80 87 98 110 123 133 141 144 146
Wind_Speed_850mb
74 67 75 61 73 71 50 69 53 69 65 54 46 53 64 60 57 50 40 30 27 9 11 13 11 6 7 6 6 3 4 2 6 6 5 6 5 7 1 5 5 5 7 3 5 8 6 4 0 13 13 18 14 13
78 72 73 67 68 79 57 58 64 56 65 61 61 60 67 66 63 62 47 39 32 13 6 10 13 12 8 8 4 2 4 4 5 7 1 6 3 3 4 5 3 3 9 7 9 9 3 1 18 32 27 27 19 15
84 75 68 74 64 81 80 47 62 69 66 68 59 57 66 73 71 69 55 45 34 14 6 9 11 12 10 8 6 5 4 4 4 4 10 4 6 6 4 8 2 6 8 5 5 9 13 17 22 27 27 24 24 22
83 79 69 78 63 70 81 71 52 72 60 64 56 56 71 81 78 71 57 47 41 13 7 6 14 12 12 9 4 5 12 10 11 5 3 4 6 12 5 4 5 8 19 11 7 5 7 25 34 33 32 30 30 28
85 84 75 73 69 63 81 82 55 61 67 60 55 58 67 82 78 67 50 48 53 18 6 9 10 13 15 13 13 13 14 9 4 1 2 3 3 4 2 1 9 24 14 11 11 45 16 41 53 46 44 42 38 38
68 84 79 67 72 60 70 83 76 53 62 56 53 66 78 89 82 66 23 50 58 34 3 4 8 7 20 17 16 10 8 6 4 4 4 3 4 5 5 7 21 46 32 19 3 52 18 43 51 50 48 47 44 40
64 81 81 66 74 61 63 69 84 52 57 53 52 69 75 86 85 53 18 21 67 45 12 9 4 5 21 17 11 9 6 4 5 3 6 5 7 9 6 10 17 35 52 38 21 67 33 58 59 55 49 47 44 41
68 73 76 64 71 63 55 59 66 51 46 39 73 82 94 96 83 44 23 35 68 28 11 7 2 6 21 10 8 11 8 7 5 5 5 3 5 10 12 36 36 27 57 49 51 61 44 56 53 61 56 54 54 52
71 61 72 68 71 59 52 54 65 55 57 76 110 107 91 62 36 35 33 57 59 13 13 10 10 7 22 9 9 10 8 3 4 4 4 3 4 13 27 40 48 57 66 63 70 59 40 58 61 67 64 62 58 58
66 62 79 69 64 70 43 51 48 59 87 89 108 31 16 29 54 57 21 16 16 9 9 7 16 6 18 10 7 10 5 4 3 5 2 4 9 64 64 54 31 59 73 64 80 60 53 66 72 76 75 64 59 57
66 70 73 70 61 55 57 69 63 72 92 85 25 12 66 71 22 10 12 10 11 3 16 15 17 12 19 8 8 13 5 2 2 6 6 5 8 12 8 27 69 41 76 73 84 75 79 71 81 78 74 68 62 59
72 72 76 72 56 58 70 45 131 91 64 53 47 69 44 14 9 10 6 4 6 11 21 24 17 14 18 12 11 9 6 3 7 3 5 7 10 25 24 22 27 71 59 83 80 69 62 67 64 70 67 66 63 58
74 81 72 65 57 67 61 121 103 87 76 66 22 17 14 8 7 18 18 7 4 23 30 24 11 16 15 10 15 6 6 7 4 4 8 11 19 13 24 26 17 62 62 71 80 75 52 54 56 61 64 62 61 62
86 74 68 65 67 67 66 128 96 95 59 14 19 15 10 8 12 10 11 12 16 19 60 56 24 11 11 7 7 8 3 2 5 3 14 7 11 19 20 20 24 44 75 62 82 78 64 55 53 53 58 61 64 68
81 74 70 66 67 54 118 115 95 77 15 11 16 12 12 9 7 14 28 29 20 58 71 30 18 10 5 8 4 8 5 8 12 11 7 7 12 22 17 15 21 27 68 61 69 81 73 61 55 52 54 62 64 67
80 67 66 53 45 85 141 111 75 47 11 13 10 12 12 10 8 15 29 29 52 76 41 9 8 7 5 10 7 15 14 13 8 8 14 20 18 19 13 8 11 20 49 60 54 73 72 68 61 53 53 56 64 67
74 52 58 50 70 128 121 84 36 10 12 13 3 11 22 17 17 22 34 40 78 56 6 10 9 6 10 6 5 10 11 7 9 17 20 23 20 14 7 5 4 15 36 52 46 52 70 64 63 61 62 61 61 64
63 61 58 58 126 112 70 24 10 9 12 7 7 17 24 17 28 31 31 66 59 24 19 7 21 7 10 11 7 7 19 29 27 26 25 22 19 11 6 3 4 11 23 34 39 40 59 71 70 68 59 55 57 61
58 55 59 98 113 72 13 9 4 12 9 9 23 26 27 18 18 30 42 77 31 24 18 13 6 7 7 12 8 7 17 25 31 26 14 10 9 8 8 7 7 11 17 28 33 37 45 58 65 62 58 56 57 58
45 48 79 68 84 23 11 10 12 14 9 10 17 26 18 13 27 38 55 48 33 13 0 5 8 8 11 6 3 8 15 22 22 16 15 17 8 10 11 10 8 10 15 20 29 34 39 47 55 58 59 57 56 54
53 45 58 85 30 15 13 10 12 14 20 14 36 14 17 26 19 25 26 31 14 9 7 12 10 17 10 4 3 11 15 18 19 15 14 16 16 16 11 10 10 13 16 18 21 26 33 37 40 45 50 52 51 49
39 63 73 52 11 12 16 13 20 23 11 23 18 13 16 10 13 19 30 10 10 7 11 11 14 16 15 14 15 13 16 17 20 21 21 19 18 15 13 13 13 13 12 12 16 19 22 26 30 37 43 46 48 48
55 57 34 10 13 10 12 9 9 8 10 12 13 8 5 1 12 35 11 10 10 16 23 25 25 21 21 26 26 28 30 28 29 34 31 28 27 26 25 24 25 25 23 19 22 25 28 30 33 36 38 42 45 47
42 17 11 9 10 8 14 6 9 12 13 4 6 7 2 6 24 4 5 6 9 8 13 18 20 19 22 23 24 28 29 29 28 31 32 32 31 32 32 31 31 31 31 27 26 28 29 31 33 37 38 40 43 45
10 6 9 10 8 11 9 5 5 7 6 2 9 3 6 13 5 6 7 4 2 4 6 8 7 9 11 13 17 21 25 27 28 27 27 28 29 28 28 28 27 28 29 30 29 30 30 31 32 34 36 39 42 43
9 5 6 7 7 9 11 11 11 12 9 6 3 10 10 5 2 7 4 9 7 8 11 9 6 4 6 8 9 10 13 16 15 13 12 16 19 21 22 22 20 23 25 26 25 25 25 26 28 30 32 34 36 39
9 3 7 10 13 19 13 14 11 8 8 11 9 8 6 7 10 3 4 11 7 8 9 7 7 6 4 2 2 5 7 9 11 10 10 12 15 17 20 22 23 22 24 25 25 26 26 27 28 27 27 29 32 33
8 10 13 11 11 9 11 7 7 5 4 7 17 5 9 3 3 5 3 7 6 4 4 3 6 6 7 6 6 6 6 8 6 5 4 6 12 15 22 27 28 27 26 25 25 25 25 26 26 25 25 25 24 27
7 15 12 10 9 17 13 7 5 6 4 7 7 6 7 9 10 9 8 7 5 4 2 1 5 3 5 4 6 7 9 11 9 7 9 8 10 14 24 25 24 24 24 22 20 20 20 21 21 21 19 18 18 21
8 7 12 9 9 9 9 9 11 18 20 23 22 21 19 19 21 18 18 14 8 6 7 6 5 5 4 5 7 5 9 17 21 19 19 18 20 22 23 23 22 22 21 20 18 15 13 13 12 12 12 14 16 18
11 8 14 15 9 9 34 42 39 32 19 25 26 26 25 18 23 29 24 19 17 15 12 11 9 8 8 10 11 8 9 13 16 17 19 21 23 23 23 22 20 19 17 15 12 7 2 1 2 3 6 9 13 17
8 9 14 10 9 28 17 7 9 11 10 11 13 14 12 10 9 9 19 17 16 17 17 13 10 11 12 15 16 17 16 16 16 16 15 17 19 20 18 17 16 14 11 7 3 2 3 4 5 8 11 14 17 21
14 21 19 18 11 9 13 11 8 11 15 10 9 8 7 7 8 9 14 21 22 22 18 12 12 12 12 14 15 16 16 17 18 19 19 18 18 16 14 12 10 7 7 7 7 7 7 8 11 14 17 20 24 28
Wind_Direction_850mb
234 236 226 228 223 218 218 228 223 213 208 209 212 216 211 204 205 204 207 210 207 211 184 195 192 187 176 183 143 189 46 321 52 64 120 198 146 221 39 242 201 154 116 186 92 70 339 235 289 129 160 134 117 99
231 231 228 227 225 217 218 211 226 212 198 219 212 214 214 206 203 204 206 207 209 227 160 195 204 209 228 206 184 90 138 145 152 92 336 104 140 91 146 278 245 311 182 191 176 207 241 97 115 128 137 142 150 137
228 227 230 222 221 217 216 211 209 217 206 213 218 210 215 210 207 209 205 199 198 223 238 199 198 197 209 204 212 178 177 151 172 183 156 164 119 132 165 245 210 249 178 154 74 232 225 185 154 154 159 159 158 153
224 219 221 217 218 218 217 217 205 216 213 207 215 208 216 210 205 204 201 198 186 181 193 178 199 194 204 196 181 148 136 135 130 98 112 135 129 194 204 215 224 204 149 171 262 275 228 220 200 181 173 168 163 160
222 218 218 219 214 218 215 219 212 207 220 211 215 213 226 212 205 201 202 200 189 194 162 144 159 186 175 173 149 136 121 126 134 199 71 226 154 169 238 277 241 191 178 174 215 189 177 194 186 183 181 176 173 169
209 212 212 218 211 214 217 219 216 210 214 216 214 226 215 207 203 183 187 209 201 187 192 117 159 162 169 170 155 149 148 166 175 218 231 221 215 186 215 236 246 203 199 199 236 175 169 166 179 182 181 178 175 174
208 209 207 209 207 211 213 215 215 210 199 211 221 208 217 206 191 176 185 194 190 176 161 114 82 111 161 166 162 172 177 200 209 227 237 240 208 204 237 237 240 205 197 195 181 165 152 170 179 183 184 180 179 178
214 206 199 203 203 210 209 213 209 210 208 211 213 199 199 191 177 176 160 160 174 144 184 118 344 132 165 158 157 182 195 205 230 203 223 226 236 230 250 238 228 204 187 190 181 182 194 179 180 182 185 187 186 187
213 198 197 200 203 205 204 201 192 193 194 195 177 176 164 166 164 157 152 165 165 146 177 155 150 197 163 140 136 155 190 255 279 206 180 180 252 229 226 231 214 200 187 184 183 188 180 189 186 187 190 194 196 193
216 204 195 200 202 210 203 193 186 196 182 182 163 147 132 147 140 128 107 150 185 186 215 134 130 157 158 146 135 132 157 212 229 254 238 172 258 255 248 241 236 212 199 188 176 185 184 189 193 195 199 201 201 200
212 202 193 200 196 205 207 185 169 179 179 151 153 89 135 130 121 114 126 166 169 244 201 163 161 140 178 129 171 194 169 196 77 249 143 280 275 247 286 244 228 220 208 203 206 207 203 204 198 199 201 203 204 203
202 196 193 194 192 199 199 209 170 171 165 163 147 131 132 143 133 125 151 144 178 214 175 150 154 134 145 155 120 149 138 60 233 103 67 268 252 264 275 272 219 209 210 207 209 214 212 213 209 206 205 204 205 206
192 194 184 180 189 192 199 169 170 172 153 126 108 143 167 157 139 185 184 201 208 174 165 153 129 140 133 163 90 109 123 198 138 56 237 236 260 259 280 295 248 204 207 208 209 211 214 216 215 212 210 208 209 208
184 177 174 181 189 183 175 170 174 158 149 115 143 155 185 175 224 188 172 170 172 163 154 145 118 140 132 101 125 109 263 90 38 294 237 248 268 305 295 261 224 207 202 208 208 210 211 212 214 214 215 216 212 212
165 169 175 180 182 183 176 174 165 159 144 136 140 167 190 168 106 128 128 122 125 151 146 117 96 129 101 103 61 116 56 250 213 233 236 280 327 326 319 257 232 219 204 206 208 210 212 214 213 213 214 214 217 219
166 168 181 180 183 171 172 168 164 168 112 136 141 110 140 129 110 137 141 137 151 156 153 136 122 111 126 129 122 214 145 222 246 225 286 324 330 323 323 274 258 221 207 210 212 211 212 216 217 217 217 217 218 220
165 166 171 164 169 168 160 159 146 148 113 113 148 175 134 92 137 174 167 159 160 160 158 132 119 160 113 77 246 197 210 229 299 331 332 328 325 327 306 290 245 201 200 207 216 218 216 219 221 224 224 223 225 225
166 165 170 160 160 158 157 159 140 112 81 96 189 142 102 113 158 165 155 162 160 192 170 166 128 145 180 179 238 234 261 307 321 312 294 316 327 338 352 285 230 210 208 212 226 228 221 220 222 226 230 232 232 230
153 156 161 150 160 151 119 112 99 94 90 98 114 106 92 134 152 156 162 164 156 160 148 147 130 185 216 215 224 342 339 347 329 333 340 330 322 343 344 326 288 252 232 229 234 236 233 231 233 235 238 239 239 238
145 151 165 153 158 147 99 82 110 104 114 111 113 97 110 136 144 150 154 163 148 128 280 220 215 194 152 126 7 359 354 354 355 14 49 35 10 353 350 339 319 278 261 254 246 241 237 235 235 237 238 241 245 247
145 149 158 163 137 99 98 109 78 88 114 93 122 110 113 124 129 147 155 140 153 208 239 234 188 170 170 172 17 14 4 1 4 358 345 350 6 7 349 326 316 304 298 288 277 266 258 254 248 246 248 249 251 250
144 164 151 151 93 78 74 66 108 109 94 125 124 130 127 157 134 143 157 182 215 236 224 230 217 209 224 243 270 301 325 332 337 329 327 325 320 317 315 319 320 310 304 293 281 273 265 258 252 250 250 249 249 249
149 150 155 80 95 72 113 94 85 96 121 166 149 96 53 144 130 144 181 213 228 227 229 237 243 246 248 251 265 284 296 297 295 297 301 299 300 300 300 299 298 299 296 286 269 262 259 254 251 249 248 249 249 247
122 129 127 103 83 105 133 79 103 108 117 81 77 84 143 145 154 175 226 184 203 230 246 255 261 262 258 257 262 265 270 279 286 287 288 291 290 290 291 292 291 292 290 288 282 276 271 265 257 252 249 246 244 244
107 57 106 70 110 105 97 59 25 69 101 127 98 134 218 170 144 193 214 126 257 264 304 308 297 274 258 251 259 268 274 280 286 289 287 290 293 294 292 292 293 290 286 285 282 278 275 271 265 259 252 248 244 241
92 45 69 131 144 135 172 125 171 155 128 122 151 139 155 123 145 220 100 13 9 4 345 341 330 317 273 279 286 283 291 300 306 309 305 308 312 315 315 312 304 292 290 289 286 281 277 274 268 263 258 254 249 244
122 133 103 91 116 125 92 86 117 104 126 151 176 144 130 183 213 86 82 26 3 337 335 340 350 343 324 324 328 331 336 337 331 311 308 319 329 332 328 323 316 307 300 297 293 289 282 273 267 263 258 251 248 245
100 137 129 132 93 54 116 87 111 133 136 118 126 123 166 13 101 67 95 354 6 6 9 12 14 23 22 40 40 44 25 357 342 320 298 299 317 311 323 324 317 314 310 304 298 292 284 276 269 261 255 250 243 239
86 112 113 56 71 56 45 43 85 72 62 134 106 105 104 77 55 85 79 65 58 43 11 32 30 38 29 37 31 20 12 12 14 339 318 313 313 312 318 319 316 312 312 310 304 291 282 276 268 256 249 241 230 223
78 81 95 66 57 52 20 59 95 101 89 96 101 105 90 92 75 81 72 62 55 51 45 52 57 45 18 24 37 13 358 1 5 0 349 338 333 329 330 331 330 328 325 320 311 300 290 280 274 267 251 232 216 203
89 96 76 64 79 76 114 107 92 80 78 68 81 107 120 126 83 61 54 45 39 34 31 34 38 34 31 37 36 39 33 6 357 351 345 343 339 338 339 338 336 336 334 326 318 303 304 275 194 182 190 189 182 176
67 67 125 113 126 154 134 91 87 85 78 70 65 79 88 87 78 65 30 35 32 32 32 35 37 37 40 39 33 31 25 12 5 359 352 345 344 343 342 340 340 340 338 346 357 41 70 93 114 130 147 154 155 157
83 76 85 101 116 174 161 134 91 88 64 72 70 75 85 85 95 46 27 23 26 27 31 46 47 46 50 41 33 28 22 15 10 6 360 352 348 350 353 353 351 5 32 50 69 80 87 98 110 123 133 141 144 146